PTLOP ENTC-ENHV

Flight info

Callsign PTLOP
Flight time 1h 24m
Altitude 5000
Route LITPI DCT HLN
Aircraft BE58/L-SDFGRY/C

Departure

Time 2026-04-17 02:59
Airport Tromsø Airport (ENTC)

Arrival

Time 2026-04-17 04:23
Airport Honningsvåg Airport, Valan (ENHV)
Time Latitude Longitude Altitude Speed Heading
2026-04-17 02:18 69.67755 18.90760 29 ft 0 kts 283°
2026-04-17 02:47 69.67768 18.90825 29 ft 6 kts 108°
2026-04-17 02:47 69.67767 18.90837 29 ft 0 kts 107°
2026-04-17 02:48 69.67765 18.90857 29 ft 5 kts 107°
2026-04-17 02:48 69.67754 18.90966 29 ft 6 kts 104°
2026-04-17 02:49 69.67767 18.91056 29 ft 5 kts 36°
2026-04-17 02:49 69.67906 18.91163 29 ft 7 kts 11°
2026-04-17 02:50 69.67960 18.91202 29 ft 0 kts 20°
2026-04-17 02:50 69.67998 18.91237 29 ft 15 kts 17°
2026-04-17 02:50 69.68110 18.91323 29 ft 8 kts 23°
2026-04-17 02:50 69.68212 18.91412 26 ft 27 kts 10°
2026-04-17 02:51 69.68457 18.91460 20 ft 33 kts 14°
2026-04-17 02:51 69.68515 18.91541 20 ft 0 kts 16°
2026-04-17 02:52 69.68517 18.91543 20 ft 1 kts 15°
2026-04-17 02:52 69.68584 18.91593 18 ft 19 kts 13°
2026-04-17 02:52 69.68758 18.91701 14 ft 17 kts 22°
2026-04-17 02:53 69.68774 18.91724 14 ft 0 kts 35°
2026-04-17 02:57 69.68781 18.91747 14 ft 5 kts 65°
2026-04-17 02:57 69.68764 18.91984 14 ft 18 kts 99°
2026-04-17 02:57 69.68680 18.92124 17 ft 18 kts 200°
2026-04-17 02:58 69.68550 18.92029 21 ft 13 kts 192°
2026-04-17 02:58 69.68225 18.91814 26 ft 92 kts 193°
2026-04-17 02:58 69.67422 18.91280 56 ft 138 kts 194°
2026-04-17 02:58 69.66502 18.90937 509 ft 134 kts 191°
2026-04-17 02:59 69.65554 18.90492 747 ft 143 kts 191°
2026-04-17 02:59 69.64537 18.90324 946 ft 152 kts 168°
2026-04-17 02:59 69.63814 18.92416 1075 ft 165 kts 103°
2026-04-17 02:59 69.64137 18.95753 497 ft 191 kts 47°
2026-04-17 03:00 69.65207 18.98061 103 ft 187 kts 30°
2026-04-17 03:00 69.66276 18.98878 601 ft 150 kts 352°
2026-04-17 03:00 69.67221 18.97785 706 ft 147 kts 320°
2026-04-17 03:00 69.67961 18.95726 719 ft 152 kts 309°
2026-04-17 03:01 69.68753 18.93725 774 ft 154 kts 337°
2026-04-17 03:01 69.69778 18.93990 957 ft 152 kts 28°
2026-04-17 03:01 69.70677 18.95617 1045 ft 154 kts 30°
2026-04-17 03:01 69.71623 18.97207 1273 ft 162 kts 28°
2026-04-17 03:02 69.72635 18.98831 1505 ft 170 kts 27°
2026-04-17 03:02 69.73534 19.01076 1726 ft 176 kts 60°
2026-04-17 03:02 69.73690 19.04552 1958 ft 180 kts 102°
2026-04-17 03:02 69.73270 19.07899 2185 ft 181 kts 114°
2026-04-17 03:03 69.72740 19.11230 2416 ft 183 kts 115°
2026-04-17 03:03 69.72290 19.14442 2625 ft 185 kts 103°
2026-04-17 03:03 69.72468 19.18068 2848 ft 185 kts 60°
2026-04-17 03:03 69.73279 19.20928 3077 ft 184 kts 50°
2026-04-17 03:04 69.74033 19.23945 3301 ft 186 kts 55°
2026-04-17 03:04 69.74749 19.27056 3525 ft 186 kts 55°
2026-04-17 03:04 69.75476 19.30163 3749 ft 187 kts 55°
2026-04-17 03:04 69.76212 19.33257 3972 ft 187 kts 54°
2026-04-17 03:05 69.76952 19.36336 4197 ft 188 kts 54°
2026-04-17 03:05 69.77700 19.39436 4418 ft 188 kts 54°
2026-04-17 03:05 69.78450 19.42542 4644 ft 189 kts 54°
2026-04-17 03:05 69.79203 19.45661 4868 ft 189 kts 54°
2026-04-17 03:06 69.79956 19.48789 5093 ft 190 kts 54°
2026-04-17 03:06 69.80711 19.51924 5316 ft 190 kts 54°
2026-04-17 03:06 69.81458 19.55031 5544 ft 191 kts 54°
2026-04-17 03:06 69.82227 19.58233 5772 ft 191 kts 54°
2026-04-17 03:07 69.82978 19.61367 5995 ft 192 kts 54°
2026-04-17 03:07 69.83741 19.64553 6219 ft 193 kts 54°
2026-04-17 03:07 69.84505 19.67751 6443 ft 193 kts 54°
2026-04-17 03:07 69.85270 19.70957 6669 ft 194 kts 54°
2026-04-17 03:08 69.86036 19.74173 6892 ft 194 kts 54°
2026-04-17 03:08 69.86819 19.77464 6969 ft 202 kts 54°
2026-04-17 03:08 69.87631 19.80888 6987 ft 209 kts 54°
2026-04-17 03:08 69.88462 19.84394 6995 ft 212 kts 54°
2026-04-17 03:09 69.89303 19.87955 6997 ft 215 kts 54°
2026-04-17 03:09 69.90141 19.91505 6991 ft 216 kts 54°
2026-04-17 03:09 69.90991 19.95111 6996 ft 217 kts 55°
2026-04-17 03:09 69.91844 19.98735 6999 ft 217 kts 55°
2026-04-17 03:10 69.92698 20.02364 7000 ft 217 kts 55°
2026-04-17 03:10 69.93552 20.06005 6999 ft 217 kts 55°
2026-04-17 03:10 69.94407 20.09652 7000 ft 217 kts 55°
2026-04-17 03:10 69.95258 20.13291 7000 ft 217 kts 55°
2026-04-17 03:11 69.96110 20.16937 7002 ft 217 kts 55°
2026-04-17 03:11 69.96961 20.20588 7002 ft 218 kts 55°
2026-04-17 03:11 69.97810 20.24239 7001 ft 218 kts 55°
2026-04-17 03:11 69.98659 20.27891 6996 ft 218 kts 55°
2026-04-17 03:12 69.99509 20.31558 7000 ft 218 kts 55°
2026-04-17 03:12 70.00358 20.35224 7000 ft 217 kts 55°
2026-04-17 03:12 70.01205 20.38886 7002 ft 217 kts 55°
2026-04-17 03:12 70.02053 20.42556 7001 ft 217 kts 55°
2026-04-17 03:13 70.02899 20.46231 6997 ft 218 kts 55°
2026-04-17 03:13 70.03746 20.49909 6998 ft 218 kts 55°
2026-04-17 03:13 70.04590 20.53587 7001 ft 218 kts 55°
2026-04-17 03:13 70.05423 20.57221 7006 ft 218 kts 56°
2026-04-17 03:14 70.06269 20.60918 7004 ft 218 kts 55°
2026-04-17 03:14 70.07114 20.64616 7001 ft 218 kts 55°
2026-04-17 03:14 70.07959 20.68320 7002 ft 218 kts 55°
2026-04-17 03:14 70.08802 20.72021 6994 ft 218 kts 56°
2026-04-17 03:15 70.09640 20.75708 6995 ft 217 kts 56°
2026-04-17 03:15 70.10479 20.79403 7008 ft 217 kts 56°
2026-04-17 03:15 70.11317 20.83103 7006 ft 218 kts 56°
2026-04-17 03:15 70.12157 20.86819 6997 ft 218 kts 56°
2026-04-17 03:16 70.12980 20.90474 6986 ft 217 kts 56°
2026-04-17 03:16 70.13813 20.94169 6992 ft 217 kts 56°
2026-04-17 03:16 70.14646 20.97865 6997 ft 217 kts 56°
2026-04-17 03:16 70.15479 21.01571 7002 ft 217 kts 56°
2026-04-17 03:17 70.16313 21.05288 7001 ft 217 kts 56°
2026-04-17 03:17 70.17178 21.08934 7002 ft 217 kts 51°
2026-04-17 03:17 70.18167 21.12285 7001 ft 217 kts 46°
2026-04-17 03:17 70.19196 21.15550 7002 ft 217 kts 46°
2026-04-17 03:18 70.20218 21.18841 6996 ft 217 kts 46°
2026-04-17 03:18 70.21238 21.22130 6999 ft 217 kts 46°
2026-04-17 03:18 70.22261 21.25429 7006 ft 218 kts 46°
2026-04-17 03:18 70.23285 21.28731 7005 ft 218 kts 46°
2026-04-17 03:19 70.24306 21.32024 6994 ft 217 kts 46°
2026-04-17 03:19 70.25324 21.35315 7002 ft 217 kts 46°
2026-04-17 03:19 70.26341 21.38609 7005 ft 217 kts 46°
2026-04-17 03:19 70.27363 21.41919 7005 ft 217 kts 46°
2026-04-17 03:20 70.28367 21.45180 6996 ft 217 kts 46°
2026-04-17 03:20 70.29386 21.48494 7000 ft 217 kts 47°
2026-04-17 03:20 70.30406 21.51815 7000 ft 217 kts 47°
2026-04-17 03:20 70.31422 21.55130 6998 ft 217 kts 47°
2026-04-17 03:21 70.32438 21.58449 7001 ft 217 kts 47°
2026-04-17 03:21 70.33453 21.61771 6999 ft 217 kts 47°
2026-04-17 03:21 70.34469 21.65099 7001 ft 217 kts 47°
2026-04-17 03:21 70.35484 21.68430 7001 ft 217 kts 47°
2026-04-17 03:22 70.36497 21.71761 7008 ft 218 kts 47°
2026-04-17 03:22 70.37513 21.75110 7003 ft 218 kts 47°
2026-04-17 03:22 70.38184 21.77323 6996 ft 218 kts 47°
2026-04-17 03:22 70.39541 21.81805 6997 ft 217 kts 47°
2026-04-17 03:23 70.40212 21.84021 6999 ft 217 kts 47°
2026-04-17 03:23 70.41222 21.87369 7000 ft 217 kts 47°
2026-04-17 03:23 70.42561 21.91812 7000 ft 217 kts 47°
2026-04-17 03:23 70.43570 21.95169 7001 ft 217 kts 47°
2026-04-17 03:24 70.44252 21.97437 7001 ft 217 kts 47°
2026-04-17 03:24 70.45258 22.00716 6998 ft 217 kts 43°
2026-04-17 03:24 70.46536 22.03001 7000 ft 215 kts 16°
2026-04-17 03:24 70.48006 22.03389 6998 ft 212 kts 351°
2026-04-17 03:25 70.49379 22.01912 7001 ft 210 kts 327°
2026-04-17 03:25 70.50411 21.98887 6996 ft 209 kts 302°
2026-04-17 03:25 70.50959 21.94871 7001 ft 208 kts 286°
2026-04-17 03:25 70.51339 21.91251 6987 ft 157 kts 288°
2026-04-17 03:26 70.51643 21.88486 6904 ft 129 kts 287°
2026-04-17 03:26 70.51929 21.85842 6437 ft 140 kts 287°
2026-04-17 03:26 70.52236 21.82974 5968 ft 147 kts 287°
2026-04-17 03:26 70.52547 21.80055 5501 ft 150 kts 287°
2026-04-17 03:27 70.52866 21.77053 5031 ft 152 kts 287°
2026-04-17 03:27 70.53194 21.74000 4555 ft 155 kts 289°
2026-04-17 03:27 70.53855 21.71502 4079 ft 158 kts 329°
2026-04-17 03:27 70.54933 21.71046 3602 ft 162 kts 13°
2026-04-17 03:28 70.55834 21.72988 3126 ft 164 kts 57°
2026-04-17 03:28 70.56024 21.76278 2762 ft 161 kts 105°
2026-04-17 03:28 70.55469 21.78977 2731 ft 147 kts 131°
2026-04-17 03:28 70.54849 21.81437 2631 ft 152 kts 124°
2026-04-17 03:29 70.54300 21.84207 2505 ft 156 kts 120°
2026-04-17 03:29 70.53779 21.87112 2380 ft 161 kts 119°
2026-04-17 03:29 70.53240 21.90116 2259 ft 166 kts 119°
2026-04-17 03:29 70.52683 21.93166 2131 ft 167 kts 120°
2026-04-17 03:30 70.52133 21.96154 2005 ft 164 kts 120°
2026-04-17 03:30 70.51584 21.99138 1878 ft 163 kts 120°
2026-04-17 03:30 70.51032 22.02059 1510 ft 162 kts 120°
2026-04-17 03:30 70.50453 22.04851 1037 ft 150 kts 123°
2026-04-17 03:31 70.49911 22.07376 711 ft 138 kts 122°
2026-04-17 03:31 70.49445 22.09748 372 ft 118 kts 120°
2026-04-17 03:31 70.49094 22.11673 152 ft 103 kts 119°
2026-04-17 03:31 70.48761 22.13472 27 ft 86 kts 118°
2026-04-17 03:32 70.48437 22.15097 60 ft 103 kts 139°
2026-04-17 03:32 70.47792 22.15134 320 ft 99 kts 212°
2026-04-17 03:32 70.47420 22.13403 622 ft 114 kts 281°
2026-04-17 03:32 70.47628 22.11133 1129 ft 113 kts 282°
2026-04-17 03:33 70.47783 22.08532 1273 ft 137 kts 275°
2026-04-17 03:33 70.47755 22.05809 1779 ft 124 kts 258°
2026-04-17 03:33 70.47616 22.03201 2071 ft 135 kts 278°
2026-04-17 03:33 70.47846 22.00444 2449 ft 132 kts 285°
2026-04-17 03:34 70.48308 21.97858 2456 ft 158 kts 320°
2026-04-17 03:34 70.49406 21.97355 2054 ft 175 kts 18°
2026-04-17 03:34 70.50227 21.99938 1555 ft 182 kts 71°
2026-04-17 03:34 70.50279 22.03662 1164 ft 178 kts 98°
2026-04-17 03:35 70.49937 22.07249 691 ft 180 kts 117°
2026-04-17 03:35 70.49291 22.10484 283 ft 189 kts 118°
2026-04-17 03:35 70.48691 22.13880 49 ft 193 kts 120°
2026-04-17 03:35 70.47840 22.16324 422 ft 157 kts 172°
2026-04-17 03:36 70.46946 22.11785 601 ft 154 kts 281°
2026-04-17 03:36 70.47179 22.08681 719 ft 154 kts 284°
2026-04-17 03:36 70.47541 22.05627 660 ft 158 kts 296°
2026-04-17 03:37 70.48334 22.03538 550 ft 165 kts 347°
2026-04-17 03:37 70.49443 22.03187 610 ft 160 kts
2026-04-17 03:37 70.50242 22.04682 903 ft 129 kts 88°
2026-04-17 03:37 70.50027 22.07248 507 ft 134 kts 115°
2026-04-17 03:38 70.49556 22.09621 244 ft 138 kts 127°
2026-04-17 03:38 70.48960 22.12365 88 ft 177 kts 117°
2026-04-17 03:38 70.48400 22.15761 177 ft 175 kts 94°
2026-04-17 03:38 70.49027 22.18093 859 ft 154 kts 24°
2026-04-17 03:39 70.50040 22.19050 1302 ft 149 kts
2026-04-17 03:39 70.50939 22.17849 1509 ft 161 kts 296°
2026-04-17 03:39 70.50766 22.14228 819 ft 202 kts 236°
2026-04-17 03:39 70.49532 22.12332 360 ft 208 kts 181°
2026-04-17 03:40 70.48514 22.14863 99 ft 204 kts 118°
2026-04-17 03:40 70.47903 22.18393 475 ft 185 kts 114°
2026-04-17 03:40 70.47578 22.21966 992 ft 161 kts 95°
2026-04-17 03:40 70.47579 22.25354 1300 ft 169 kts 88°
2026-04-17 03:41 70.47617 22.28785 1669 ft 167 kts 87°
2026-04-17 03:41 70.47696 22.32530 1551 ft 192 kts 84°
2026-04-17 03:41 70.47886 22.36441 1786 ft 186 kts 78°
2026-04-17 03:41 70.48315 22.40187 1827 ft 192 kts 62°
2026-04-17 03:42 70.48927 22.43656 2059 ft 185 kts 63°
2026-04-17 03:42 70.49473 22.47111 2313 ft 182 kts 64°
2026-04-17 03:42 70.50001 22.50510 2557 ft 177 kts 64°
2026-04-17 03:42 70.50505 22.53722 2798 ft 162 kts 64°
2026-04-17 03:43 70.50961 22.56610 3036 ft 146 kts 64°
2026-04-17 03:43 70.51385 22.59273 3263 ft 141 kts 64°
2026-04-17 03:43 70.51815 22.61972 3520 ft 147 kts 64°
2026-04-17 03:43 70.52262 22.64785 3782 ft 153 kts 64°
2026-04-17 03:44 70.52727 22.67709 4038 ft 157 kts 64°
2026-04-17 03:44 70.53182 22.70585 4294 ft 148 kts 64°
2026-04-17 03:44 70.53617 22.73335 4536 ft 143 kts 64°
2026-04-17 03:44 70.54038 22.75996 4785 ft 139 kts 63°
2026-04-17 03:45 70.54452 22.78610 5041 ft 139 kts 64°
2026-04-17 03:45 70.54870 22.81261 5299 ft 142 kts 64°
2026-04-17 03:45 70.55290 22.83939 5550 ft 143 kts 64°
2026-04-17 03:45 70.55716 22.86643 5795 ft 144 kts 64°
2026-04-17 03:46 70.56144 22.89366 6040 ft 144 kts 64°
2026-04-17 03:46 70.56573 22.92097 6292 ft 145 kts 64°
2026-04-17 03:46 70.57002 22.94835 6549 ft 146 kts 64°
2026-04-17 03:46 70.57451 22.97691 6809 ft 159 kts 64°
2026-04-17 03:47 70.57937 23.00793 7048 ft 173 kts 64°
2026-04-17 03:47 70.58476 23.04245 7088 ft 189 kts 64°
2026-04-17 03:47 70.59046 23.07917 7097 ft 198 kts 64°
2026-04-17 03:47 70.59635 23.11723 7096 ft 203 kts 64°
2026-04-17 03:48 70.60234 23.15597 7096 ft 206 kts 64°
2026-04-17 03:48 70.60839 23.19519 7095 ft 207 kts 64°
2026-04-17 03:48 70.61449 23.23483 7095 ft 208 kts 64°
2026-04-17 03:48 70.62059 23.27445 7095 ft 209 kts 64°
2026-04-17 03:49 70.62670 23.31424 7095 ft 209 kts 65°
2026-04-17 03:49 70.63280 23.35397 7096 ft 209 kts 64°
2026-04-17 03:49 70.63888 23.39368 7098 ft 209 kts 65°
2026-04-17 03:49 70.64496 23.43351 7100 ft 209 kts 65°
2026-04-17 03:50 70.65097 23.47285 7100 ft 209 kts 65°
2026-04-17 03:50 70.65704 23.51274 7099 ft 209 kts 65°
2026-04-17 03:50 70.66309 23.55256 7099 ft 209 kts 65°
2026-04-17 03:50 70.66913 23.59246 7100 ft 209 kts 65°
2026-04-17 03:51 70.67513 23.63211 7100 ft 209 kts 65°
2026-04-17 03:51 70.68121 23.67234 7101 ft 209 kts 65°
2026-04-17 03:51 70.68725 23.71246 7101 ft 209 kts 65°
2026-04-17 03:51 70.69327 23.75248 7101 ft 209 kts 65°
2026-04-17 03:52 70.69929 23.79252 7099 ft 209 kts 65°
2026-04-17 03:52 70.70528 23.83258 7100 ft 209 kts 65°
2026-04-17 03:52 70.71127 23.87265 7103 ft 209 kts 65°
2026-04-17 03:52 70.71726 23.91280 7100 ft 210 kts 65°
2026-04-17 03:53 70.72325 23.95307 7099 ft 209 kts 65°
2026-04-17 03:53 70.72923 23.99329 7099 ft 209 kts 65°
2026-04-17 03:53 70.73520 24.03355 7099 ft 209 kts 65°
2026-04-17 03:53 70.74103 24.07391 7099 ft 209 kts 66°
2026-04-17 03:54 70.74678 24.11380 7100 ft 209 kts 66°
2026-04-17 03:54 70.75264 24.15409 7101 ft 209 kts 65°
2026-04-17 03:54 70.75851 24.19440 7101 ft 209 kts 65°
2026-04-17 03:54 70.76441 24.23493 7100 ft 209 kts 65°
2026-04-17 03:55 70.77026 24.27528 7100 ft 209 kts 66°
2026-04-17 03:55 70.77611 24.31576 7100 ft 209 kts 66°
2026-04-17 03:55 70.78194 24.35630 7099 ft 209 kts 66°
2026-04-17 03:55 70.78776 24.39680 7102 ft 209 kts 66°
2026-04-17 03:56 70.79357 24.43736 7100 ft 209 kts 66°
2026-04-17 03:56 70.79930 24.47750 7099 ft 209 kts 66°
2026-04-17 03:56 70.80510 24.51816 7096 ft 209 kts 66°
2026-04-17 03:56 70.81088 24.55878 7098 ft 209 kts 66°
2026-04-17 03:57 70.81664 24.59941 7100 ft 209 kts 66°
2026-04-17 03:57 70.82239 24.64002 7104 ft 209 kts 66°
2026-04-17 03:57 70.82813 24.68068 7102 ft 209 kts 66°
2026-04-17 03:57 70.83389 24.72156 7098 ft 209 kts 66°
2026-04-17 03:58 70.83963 24.76232 7099 ft 209 kts 66°
2026-04-17 03:58 70.84534 24.80300 7100 ft 209 kts 66°
2026-04-17 03:58 70.85105 24.84381 7099 ft 209 kts 66°
2026-04-17 03:58 70.85668 24.88407 7102 ft 209 kts 66°
2026-04-17 03:59 70.86237 24.92489 7102 ft 209 kts 66°
2026-04-17 03:59 70.86808 24.96585 7101 ft 210 kts 66°
2026-04-17 03:59 70.87378 25.00689 7100 ft 209 kts 66°
2026-04-17 03:59 70.87944 25.04777 7100 ft 209 kts 66°
2026-04-17 04:00 70.88510 25.08871 7100 ft 210 kts 66°
2026-04-17 04:00 70.89076 25.12975 7099 ft 209 kts 66°
2026-04-17 04:00 70.89636 25.17036 7100 ft 210 kts 66°
2026-04-17 04:00 70.90199 25.21136 7099 ft 209 kts 66°
2026-04-17 04:01 70.90761 25.25238 7098 ft 209 kts 67°
2026-04-17 04:01 70.91323 25.29344 7100 ft 209 kts 67°
2026-04-17 04:01 70.91883 25.33447 7100 ft 209 kts 67°
2026-04-17 04:01 70.92443 25.37558 7103 ft 209 kts 67°
2026-04-17 04:02 70.92972 25.41456 7096 ft 185 kts 67°
2026-04-17 04:02 70.93434 25.44862 7090 ft 164 kts 66°
2026-04-17 04:02 70.93852 25.47945 7083 ft 150 kts 66°
2026-04-17 04:02 70.94112 25.49856 7087 ft 144 kts 66°
2026-04-17 04:03 70.94595 25.53422 7099 ft 138 kts 67°
2026-04-17 04:03 70.94985 25.56297 7117 ft 159 kts 67°
2026-04-17 04:03 70.95427 25.59577 7120 ft 173 kts 67°
2026-04-17 04:03 70.95895 25.63067 7115 ft 181 kts 67°
2026-04-17 04:04 70.96378 25.66675 7107 ft 185 kts 67°
2026-04-17 04:04 70.96872 25.70369 7100 ft 188 kts 67°
2026-04-17 04:04 70.97357 25.74010 7098 ft 189 kts 67°
2026-04-17 04:04 70.97841 25.77645 7097 ft 190 kts 67°
2026-04-17 04:05 70.98357 25.81526 6886 ft 200 kts 67°
2026-04-17 04:05 70.98889 25.85542 6646 ft 206 kts 67°
2026-04-17 04:05 70.99431 25.89638 6391 ft 209 kts 68°
2026-04-17 04:05 70.99977 25.93777 6137 ft 210 kts 67°
2026-04-17 04:06 71.00542 25.97898 5881 ft 208 kts 62°
2026-04-17 04:06 71.01488 26.01052 5625 ft 199 kts 30°
2026-04-17 04:06 71.02682 26.03130 5373 ft 196 kts 30°
2026-04-17 04:06 71.03829 26.05369 5124 ft 194 kts 32°
2026-04-17 04:07 71.04582 26.06869 4958 ft 194 kts 31°
2026-04-17 04:07 71.05713 26.09107 4710 ft 193 kts 31°
2026-04-17 04:07 71.06841 26.11316 4458 ft 192 kts 31°
2026-04-17 04:07 71.07966 26.13506 4204 ft 191 kts 31°
2026-04-17 04:08 71.09090 26.15687 3952 ft 190 kts 31°
2026-04-17 04:08 71.10209 26.17858 3702 ft 189 kts 31°
2026-04-17 04:08 71.11316 26.20007 3453 ft 189 kts 31°
2026-04-17 04:08 71.12427 26.22170 3205 ft 188 kts 31°
2026-04-17 04:09 71.13544 26.24270 2958 ft 187 kts 24°
2026-04-17 04:09 71.14802 26.24720 2701 ft 183 kts 344°
2026-04-17 04:09 71.15801 26.22542 2540 ft 175 kts 301°
2026-04-17 04:09 71.16005 26.19085 2516 ft 162 kts 257°
2026-04-17 04:10 71.15405 26.16295 2511 ft 157 kts 219°
2026-04-17 04:10 71.14402 26.15028 2507 ft 156 kts 192°
2026-04-17 04:10 71.13381 26.14001 2504 ft 154 kts 207°
2026-04-17 04:10 71.12412 26.12630 2500 ft 151 kts 204°
2026-04-17 04:11 71.11439 26.11527 2382 ft 151 kts 200°
2026-04-17 04:11 71.10439 26.10514 2283 ft 156 kts 200°
2026-04-17 04:11 71.09398 26.09375 2247 ft 160 kts 202°
2026-04-17 04:11 71.08364 26.08080 2199 ft 161 kts 207°
2026-04-17 04:12 71.07294 26.06679 1888 ft 176 kts 203°
2026-04-17 04:12 71.06161 26.05326 1752 ft 168 kts 202°
2026-04-17 04:12 71.05044 26.04272 1444 ft 169 kts 195°
2026-04-17 04:12 71.03969 26.03555 1225 ft 156 kts 189°
2026-04-17 04:13 71.02974 26.03284 744 ft 132 kts 189°
2026-04-17 04:13 71.02073 26.02763 359 ft 128 kts 198°
2026-04-17 04:13 71.01369 26.01546 113 ft 108 kts 226°
2026-04-17 04:13 71.01000 25.99707 74 ft 98 kts 255°
2026-04-17 04:14 71.00969 25.97704 36 ft 90 kts 270°
2026-04-17 04:14 71.01002 25.95539 238 ft 115 kts 276°
2026-04-17 04:14 71.01439 25.93241 415 ft 140 kts 320°
2026-04-17 04:14 71.02308 25.91883 903 ft 141 kts 342°
2026-04-17 04:15 71.03333 25.92030 1196 ft 157 kts 21°
2026-04-17 04:15 71.04330 25.93467 1546 ft 162 kts 26°
2026-04-17 04:15 71.05327 25.95300 1785 ft 170 kts 35°
2026-04-17 04:15 71.05990 25.98090 2018 ft 159 kts 81°
2026-04-17 04:16 71.05602 26.01166 1869 ft 170 kts 146°
2026-04-17 04:16 71.04466 26.02309 1268 ft 166 kts 174°
2026-04-17 04:16 71.03413 26.02449 859 ft 141 kts 184°
2026-04-17 04:16 71.02539 26.02350 433 ft 119 kts 184°
2026-04-17 04:17 71.01767 26.01948 189 ft 102 kts 200°
2026-04-17 04:17 71.01198 26.00852 99 ft 94 kts 236°
2026-04-17 04:17 71.00965 25.99013 49 ft 92 kts 269°
2026-04-17 04:17 71.00978 25.97076 61 ft 101 kts 277°
2026-04-17 04:18 71.01435 25.95594 311 ft 116 kts 351°
2026-04-17 04:18 71.02214 25.96675 526 ft 138 kts 50°
2026-04-17 04:18 71.02519 25.99557 671 ft 148 kts 88°
2026-04-17 04:18 71.02235 26.02185 392 ft 121 kts 142°
2026-04-17 04:19 71.01514 26.02201 209 ft 108 kts 223°
2026-04-17 04:19 71.01036 26.00545 97 ft 95 kts 244°
2026-04-17 04:19 71.00971 25.98574 37 ft 90 kts 270°
2026-04-17 04:19 71.01000 25.96561 71 ft 105 kts 288°
2026-04-17 04:20 71.01608 25.95848 338 ft 106 kts 27°
2026-04-17 04:20 71.02032 25.97842 459 ft 126 kts 70°
2026-04-17 04:20 71.02207 26.00736 588 ft 138 kts 92°
2026-04-17 04:20 71.01848 26.03091 595 ft 116 kts 163°
2026-04-17 04:21 71.01157 26.01926 371 ft 142 kts 236°
2026-04-17 04:21 71.00979 25.98678 66 ft 174 kts 270°
2026-04-17 04:21 71.01358 25.95546 317 ft 168 kts 339°
2026-04-17 04:21 71.02309 25.97156 505 ft 172 kts 72°
2026-04-17 04:22 71.02431 26.00509 623 ft 150 kts 94°
2026-04-17 04:22 71.01877 26.02427 324 ft 116 kts 184°
2026-04-17 04:22 71.01189 26.01562 178 ft 104 kts 239°
2026-04-17 04:22 71.00971 25.99645 67 ft 90 kts 268°
2026-04-17 04:23 71.00971 25.98094 31 ft 38 kts 271°
2026-04-17 04:23 71.00950 25.97813 28 ft 10 kts 171°
2026-04-17 04:23 71.00916 25.97822 30 ft 4 kts 186°
2026-04-17 04:23 71.00900 25.97818 31 ft 1 kts 178°
2026-04-17 04:24 71.00898 25.97818 31 ft 0 kts 179°